[Iaude] MPEC K207: 2020 KZ5 [a=2.27,e=0.51,i=6.3,H=20.5]

mpec at marsden.cfa.harvard.edu mpec at marsden.cfa.harvard.edu
Thu May 28 07:30:34 EDT 2020


M.P.E.C. 2020-K207                                 Issued 2020 May 28, 11:29 UT

     The Minor Planet Electronic Circulars contain information on unusual
         minor planets and routine data on comets.  They are published
    on behalf of Division F of the International Astronomical Union by the
          Minor Planet Center, Smithsonian Astrophysical Observatory,
                          Cambridge, MA 02138, U.S.A.

             Prepared using the Tamkin Foundation Computer Network

                              MPC at CFA.HARVARD.EDU
            URL https://www.minorplanetcenter.net/    ISSN 1523-6714

                                    2020 KZ5                                    


Observations:
     K20K05Z* C2020 05 26.39912 20 29 59.82 -16 01 06.7          19.9 GVEK207G96
     K20K05Z  C2020 05 26.40433 20 30 01.35 -16 00 53.4          20.0 GVEK207G96
     K20K05Z  C2020 05 26.40956 20 30 02.92 -16 00 39.3          20.1 GVEK207G96
     K20K05Z  C2020 05 26.41480 20 30 04.49 -16 00 25.8          20.2 GVEK207G96
     K20K05Z  C2020 05 26.44376 20 30 13.03 -15 59 10.3          20.3 GVEK207I52
     K20K05Z  C2020 05 26.44453 20 30 13.27 -15 59 08.1          20.3 GVEK207I52
     K20K05Z  C2020 05 26.44529 20 30 13.50 -15 59 06.5          20.1 GVEK207I52
     K20K05Z  C2020 05 26.44710 20 30 14.04 -15 59 01.4          19.8 GVEK207I52
     K20K05Z  C2020 05 26.51178920 30 34.553-15 56 05.38         19.49wUEK207F52
     K20K05Z  C2020 05 26.52485420 30 38.410-15 55 31.41         19.76wUEK207F52
     K20K05Z  C2020 05 26.53787820 30 42.288-15 54 57.15         19.87wUEK207F52
     K20K05Z KC2020 05 26.66043220 31 19.34 -15 49 03.3          19.8 GVEK207474
     K20K05Z KC2020 05 26.66326420 31 20.19 -15 48 55.9          19.5 GVEK207474
     K20K05Z KC2020 05 26.66468020 31 20.62 -15 48 52.0          19.7 GVEK207474
     K20K05Z KC2020 05 26.66798420 31 21.61 -15 48 43.4          19.6 GVEK207474
     K20K05Z bC2020 05 27.04860120 33 18.64 -15 32 29.4          20.2 GVEK207L01
     K20K05Z bC2020 05 27.05017820 33 19.08 -15 32 25.4          20.2 GVEK207L01
     K20K05Z bC2020 05 27.05175620 33 19.54 -15 32 21.4          20.1 GVEK207L01
     K20K05Z bC2020 05 27.05333120 33 20.02 -15 32 16.3          20.3 GVEK207L01
     K20K05Z  C2020 05 27.39352 20 35 04.49 -15 16 59.6                VEK207I52
     K20K05Z  C2020 05 27.39732 20 35 05.64 -15 16 49.2          19.2 GVEK207I52
     K20K05Z KC2020 05 27.62094520 36 14.05 -15 06 08.6          20.5 GVEK207474
     K20K05Z KC2020 05 27.62715420 36 15.92 -15 05 51.7          20.4 GVEK207474
     K20K05Z KC2020 05 27.62922420 36 16.53 -15 05 46.4          20.7 GVEK207474
     K20K05Z  C2020 05 28.42573 20 40 20.87 -14 29 59.8          19.3 GVEK207I52
     K20K05Z  C2020 05 28.42664 20 40 21.16 -14 29 57.0          19.1 GVEK207I52
     K20K05Z  C2020 05 28.42756 20 40 21.42 -14 29 54.5          19.3 GVEK207I52
     K20K05Z  C2020 05 28.42848 20 40 21.70 -14 29 51.9          19.0 GVEK207I52

Observer details:
474 Mount John Observatory, Lake Tekapo.  Observers A. C. Gilmore, P. M.
    Kilmartin.  Measurer P. M. Kilmartin.  1.0-m f/7.7 reflector + CCD.
F52 Pan-STARRS 2, Haleakala.  Observers J. Bulger, T. Dukes, T. Lowe, A.
    Schultz, M. Willman.  Measurers K. Chambers, S. Chastel, T. de Boer, L.
    Denneau, J. Fairlamb, H. Flewelling, M. Huber, C.-C. Lin, E. Magnier, Y.
    Ramanjooloo, R. Wainscoat, R. Weryk.  1.8-m Ritchey-Chretien + CCD.
G96 Mt. Lemmon Survey.  Observer D. Rankin.  Measurers E. J. Christensen, G.
    A. Farneth, D. C. Fuls, A. R. Gibbs, A. D. Grauer, H. Groeller, R. A.
    Kowalski, S. M. Larson, G. J. Leonard, T. A. Pruyne, D. Rankin, R. L.
    Seaman, F. C. Shelly, K. W. Wierzchos.  1.5-m reflector + 10K CCD.
I52 Steward Observatory, Mt. Lemmon Station.  Observers D. C. Fuls, R. A.
    Kowalski.  Measurers E. J. Christensen, G. A. Farneth, D. C. Fuls, A. R.
    Gibbs, A. D. Grauer, H. Groeller, R. A. Kowalski, S. M. Larson, G. J.
    Leonard, T. A. Pruyne, D. Rankin, R. L. Seaman, F. C. Shelly, K. W.
    Wierzchos.  1.0-m reflector + CCD.
L01 Visnjan Observatory, Tican.  Observer K. Korlevic.  1.0-m f/2.9 reflector
    + CCD.

Orbital elements:
2020 KZ5                                                 Earth MOID = 0.1232 AU
Epoch 2020 May 31.0 TT = JDT 2459000.5                  Veres
M 350.89306              (2000.0)            P               Q
n   0.28884273     Peri.   42.16240     +0.39610219     +0.91232857
a   2.2665315      Node   251.41100     -0.86895781     +0.33595695
e   0.5070962      Incl.    6.28293     -0.29667386     +0.23407160
P   3.41           H   20.5           G   0.15           U   7
Residuals in seconds of arc
200526 G96  0.1-  0.1+    200526 F52  0.3+  0.2+    200527 I52  0.0   0.1-
200526 G96  0.3-  0.2-    200526 474  0.0   0.0     200527 474  0.0   0.0
200526 G96  0.0   0.3+    200526 474  0.1+  0.1-    200527 474  0.3+  0.2+
200526 G96  0.2+  0.1+    200526 474  0.2+  0.1+    200527 474  0.1+  0.1-
200526 I52  0.3-  0.2-    200526 474  0.3+  0.1-    200528 I52  0.2-  0.2-
200526 I52  0.1-  0.0     200527 L01  0.3+  0.0     200528 I52  0.1+  0.1+
200526 I52  0.0   0.4-    200527 L01  0.2-  0.1-    200528 I52  0.1-  0.0
200526 I52  0.1+  0.0     200527 L01  0.4-  0.3-    200528 I52  0.0   0.1+
200526 F52  0.1+  0.2+    200527 L01  0.2-  0.6+
200526 F52  0.0   0.0     200527 I52  0.3-  0.3-

Ephemeris:
2020 KZ5                 a,e,i = 2.27, 0.51, 6                   q = 1.1172
Date    TT    R. A. (2000) Decl.     Delta      r    Elong.  Phase     V
2020 04 28    18 18 52.1 -28 18 30   0.4765  1.3311   123.6    39.1    21.1
...
2020 05 13    19 23 47.0 -23 51 08   0.3678  1.2508   123.3    42.5    20.5
...
2020 05 21    20 02 40.7 -19 38 52   0.3250  1.2137   121.4    45.4    20.2
...
2020 05 27    20 33 02.7 -15 34 17   0.3007  1.1891   119.2    48.1    20.1
2020 05 28    20 38 09.4 -14 49 13   0.2972  1.1853   118.7    48.6    20.1
2020 05 29    20 43 16.3 -14 03 01   0.2940  1.1816   118.3    49.1    20.0
...
2020 06 04    21 13 53.7 -09 05 44   0.2788  1.1613   115.3    52.2    20.0
...
2020 06 12    21 53 33.2 -01 58 01   0.2686  1.1397   111.0    56.3    20.0
...
2020 06 27    22 59 21.5 +10 35 38   0.2750  1.1184   104.7    61.6    20.1

M. P. C. Staff               (C) Copyright 2020 MPC           M.P.E.C. 2020-K207




More information about the Iaude mailing list